[[{"header":{"parameterUnit":"m.s-1","parameterCategory":1,"la1":30.2991,"la2":30.254,"lo1":-89.0895,"lo2":-89.0444,"dy":0.0017,"dx":0.0017,"nx":28,"ny":28,"refTime":"2023-10-10T03:00:00:Z","depth":0,"parameterNumber":2,"parameterNumberName":"U-component_of_WINDS"},"data":[0,0,0,0,0,0,0,0,0,0,0,0,0,0,0,0,0,0,0,0,0,0,0,0,0,0,0,0,0,0,0,0,0,0,0,0,0,0,0,0,0,0,0,0,0,0,0,0,0,0,0,0,0,0,0,0,0,0,-6.9669,-6.9669,0,-6.9678,-6.9678,-6.9678,-6.9443,-6.9436,-6.943,-6.9424,-6.9443,-6.9449,-6.9455,0,0,0,0,0,0,0,0,0,0,0,0,0,-6.9456,-6.9461,-6.9669,-6.9669,-6.9669,-6.9678,-6.9678,-6.9678,-6.9444,-6.9436,-6.9428,-6.9421,-6.9441,-6.9448,-6.9456,0,0,0,0,0,0,0,0,0,0,0,0,0,-6.9516,-6.9463,-6.9669,-6.9553,-6.9542,-6.9678,-6.9678,-6.9678,-6.9445,-6.9436,-6.9426,-6.9417,-6.9438,-6.9448,-6.9457,-6.9707,0,0,-6.9486,-6.9491,0,0,0,0,0,0,0,0,-6.9513,-6.9524,-6.957,-6.9561,-6.955,-6.9549,-6.961,-6.9688,-6.9448,-6.9483,-6.9424,-6.9413,-6.9487,-6.9492,-6.9514,-6.9708,-6.9709,-6.9487,-6.9493,-6.9497,-6.95,0,0,0,0,0,0,0,-6.9509,-6.9522,-6.9672,-6.9571,-6.9558,-6.9503,-6.9501,-6.9624,-6.9538,-6.9479,-6.9462,-6.9465,-6.9479,-6.9506,-6.9513,-6.9709,-6.9487,-6.9496,-6.9501,-6.9505,-7.011,-7.012,0,0,0,0,0,0,-6.9519,-6.952,-6.9672,-6.9673,-6.9507,-6.9515,-6.9512,-6.9559,-6.9536,-6.9523,-6.9474,-6.9454,-6.9494,-6.9502,-6.9513,-6.9805,-6.9497,-6.9506,-6.9512,-7.01,-7.0113,-7.0124,0,0,0,0,0,0,-6.9516,-6.9535,-6.9672,-6.9592,-6.9605,-6.9528,-6.9583,-6.9564,-6.959,-6.9532,-6.9516,-6.9516,-6.9487,-6.9499,-6.966,-6.9803,-6.9511,-6.9519,-7.0088,-7.0104,-7.0118,-7.0392,0,0,0,0,0,0,-6.951,-6.9535,-6.9627,-6.9595,-6.961,-6.9817,-6.9592,-6.9571,-6.9607,-6.9582,-6.9568,-6.9556,-6.948,-6.9647,-6.967,-6.9811,-6.9527,-7.0075,-7.0095,-7.0113,-7.037,-7.0415,-7.0454,0,0,0,0,0,-6.9504,-6.9705,-6.9633,-6.9653,-6.9723,-6.9826,-6.9834,-6.974,-6.9619,-6.9712,-6.9675,-6.9557,-6.9783,-6.9666,-6.9689,-6.9835,-7.0066,-7.009,-7.0112,-7.0352,-7.0406,-7.0453,0,0,0,0,0,0,-6.9758,-6.9699,-6.9618,-6.9815,-6.9827,-6.9785,-6.99,-6.9801,-6.985,-6.9825,-6.9709,-6.9708,-6.9889,-6.9877,-6.9747,-7.0077,-6.9904,-6.9933,-7.0078,-7.0129,-7.017,-7.017,-6.9535,0,0,0,0,0,-6.9837,-6.9922,-6.9867,-7.0046,-7.0056,-6.9978,-7.0019,-6.9946,-6.9954,-6.9959,-6.9933,-6.9949,-7.0024,-7.0076,-7.0141,-7.0367,-7.0363,-7.048,-7.0521,-7.0556,-7.0583,-7.0705,-7.0757,-7.02,-7.02,-7.0199,0,0,-7.0001,-6.9979,-7.0041,-7.0097,-7.0097,-7.0192,-6.9984,-7.0092,-7.0161,-6.9976,-7.0126,-7.0109,-7.0119,-7.0314,-7.0399,-7.0311,-7.0736,-7.0585,-7.0613,-7.0622,-7.0734,-7.0787,-7.0834,-7.0216,-7.0213,-7.021,0,0,-7.0348,-7.0339,-7.0488,-7.0493,-7.0495,-7.0442,-7.0479,-7.0453,-7.0433,-7.0581,-7.0445,-7.0528,-7.0658,-7.0671,-7.0696,-7.105,-7.0944,-7.1075,-7.1294,-7.1414,-7.1458,-7.1496,-7.1625,-7.1672,-7.1102,-7.1103,-7.1103,0,-7.0553,-7.0686,-7.0578,-7.0695,-7.0725,-7.056,-7.0712,-7.0722,-7.0748,-7.0774,-7.0674,-7.0835,-7.0831,-7.1028,-7.1115,-7.1139,-7.1179,-7.1076,-7.1459,-7.1497,-7.1531,-7.1653,-7.1701,-7.1118,-7.1117,-7.1115,-7.1114,0,-7.0938,-7.1033,-7.1154,-7.118,-7.1224,-7.1358,-7.1274,-7.1332,-7.1255,-7.1214,-7.1369,-7.1357,-7.1418,-7.1459,-7.1386,-7.1648,-7.1593,-7.1479,-7.1302,-7.1602,-7.1714,-7.176,-7.1141,-7.1136,-7.1131,-7.1127,0,0,-7.1446,-7.1411,-7.1458,-7.1468,-7.146,-7.1533,-7.1661,-7.1718,-7.1771,-7.1795,-7.1902,-7.2017,-7.191,-7.1938,-7.1866,-7.1971,-7.2256,-7.1843,-7.1841,-7.1922,-7.2546,-7.2634,-7.2689,-7.2185,-7.2193,-7.22,-7.2546,0,-7.1785,-7.1998,-7.1906,-7.2131,-7.2219,-7.2064,-7.2176,-7.2185,-7.2151,-7.2223,-7.2185,-7.2269,-7.2121,-7.2138,-7.2234,-7.2201,-7.238,-7.2174,-7.2287,-7.2292,-7.229,-7.2747,-7.284,-7.3167,-7.2589,-7.2596,-7.2602,0,-7.2208,-7.2247,-7.248,-7.2457,-7.249,-7.2592,-7.2638,-7.2708,-7.2717,-7.2684,-7.2716,-7.2621,-7.2749,-7.2572,-7.2749,-7.2611,-7.2652,-7.2643,-7.2653,-7.2661,-7.2466,-7.277,-7.3269,-7.3319,-7.2669,-7.2664,-7.2659,0,-7.2557,-7.2669,-7.2822,-7.2836,-7.2813,-7.2889,-7.2883,-7.2881,-7.2922,-7.2964,-7.299,-7.3047,-7.3079,-7.3128,-7.3052,-7.293,-7.3241,-7.3057,-7.3221,-7.3223,-7.3294,-7.3291,-7.3809,-7.3319,-7.3318,-7.3317,-7.3316,0,-7.2946,-7.3095,-7.2979,-7.3074,-7.3238,-7.3132,-7.3298,-7.3276,-7.3276,-7.3367,-7.3237,-7.3326,-7.3219,-7.3299,-7.324,-7.3397,-7.3413,-7.3393,-7.3376,-7.3405,-7.3408,-7.3431,-7.3407,-7.333,-7.3327,-7.3325,-7.3322,0,-7.3364,-7.3292,-7.345,-7.3415,-7.3409,-7.3532,-7.3503,-7.3592,-7.3548,-7.3664,-7.3686,-7.3619,-7.3706,-7.3635,-7.372,-7.3681,-7.389,-7.384,-7.3887,-7.3873,-7.4042,-7.4028,-7.4593,-7.4663,-7.4128,-7.4133,-7.4137,0,-7.3617,-7.3728,-7.3705,-7.3754,-7.3756,-7.3838,-7.3879,-7.378,-7.3828,-7.3847,-7.3935,-7.401,-7.4065,-7.4212,-7.4174,-7.424,-7.4192,-7.4385,-7.4201,-7.4228,-7.4197,-7.4192,-7.4204,-7.4424,-7.443,-7.4435,-7.4439,0,-7.4075,-7.4034,-7.4096,-7.4147,-7.4198,-7.4234,-7.426,-7.4309,-7.4208,-7.427,-7.4355,-7.4398,-7.4485,-7.4563,-7.4616,-7.4613,-7.4513,-7.4497,-7.4539,-7.4571,-7.4594,-7.4586,-7.3991,-7.4485,-7.4481,-7.4477,-7.4475,-7.4473,-7.442,-7.4512,-7.4509,-7.4583,-7.4592,-7.462,-7.4701,-7.4667,-7.4736,-7.4796,-7.4735,-7.484,-7.4849,-7.4908,-7.4919,-7.5002,-7.4922,-7.4982,-7.4998,-7.5015,-7.504,-7.458,-7.5012,-7.501,-7.5009,-7.5008,-7.5007,0,-7.4872,-7.4863,-7.4932,-7.4971,-7.5031,-7.4926,-7.495,-7.5007,-7.51,-7.5115,-7.5171,-7.5272,-7.5348,-7.5316,-7.5383,-7.5456,-7.5412,-7.5477,-7.5472,-7.5474,-7.5106,-7.5064,-7.5512,-7.5512,-7.5512,-7.5512,-7.5512,-7.5512,-7.5115,-7.5265,-7.5225,-7.538,-7.5369,-7.5469,-7.5492,-7.5518,-7.5529,-7.5647,-7.5708,-7.5684,-7.5682,-7.5748,-7.5814,-7.5803,-7.5835,-7.5918,-7.5891,-7.5549,-7.5499,-7.5452,-7.5412,-7.5926,-7.5926,-7.6251,-7.6254,-7.6257]},{"header":{"parameterUnit":"m.s-1","parameterCategory":1,"la1":30.2991,"la2":30.254,"lo1":-89.0895,"lo2":-89.0444,"dy":0.0017,"dx":0.0017,"nx":28,"ny":28,"refTime":"2023-10-10T03:00:00:Z","depth":0,"parameterNumber":3,"parameterNumberName":"V-component_of_WINDS"},"data":[0,0,0,0,0,0,0,0,0,0,0,0,0,0,0,0,0,0,0,0,0,0,0,0,0,0,0,0,0,0,0,0,0,0,0,0,0,0,0,0,0,0,0,0,0,0,0,0,0,0,0,0,0,0,0,0,0,0,-3.9856,-3.9856,0,-3.9898,-3.9898,-3.9899,-3.9859,-3.9857,-3.9855,-3.9854,-3.9898,-3.9901,-3.9903,0,0,0,0,0,0,0,0,0,0,0,0,0,-3.9738,-3.974,-3.9856,-3.9856,-3.9857,-3.9898,-3.9898,-3.9899,-3.9859,-3.9857,-3.9855,-3.9853,-3.9897,-3.99,-3.9903,0,0,0,0,0,0,0,0,0,0,0,0,0,-3.9785,-3.9741,-3.9856,-3.9842,-3.9841,-3.9898,-3.9898,-3.9899,-3.9859,-3.9857,-3.9855,-3.9852,-3.9896,-3.99,-3.9904,-3.9977,0,0,-3.9916,-3.9918,0,0,0,0,0,0,0,0,-3.9783,-3.979,-3.9843,-3.9843,-3.9842,-3.9871,-3.9873,-3.9925,-3.986,-3.9853,-3.9854,-3.9851,-3.9891,-3.9895,-3.9908,-3.9979,-3.9981,-3.9916,-3.9919,-3.9921,-3.9922,0,0,0,0,0,0,0,-3.9779,-3.9788,-3.9873,-3.9844,-3.9843,-3.9832,-3.9836,-3.9883,-3.9885,-3.9853,-3.985,-3.9856,-3.989,-3.9905,-3.9909,-3.9981,-3.9916,-3.992,-3.9922,-3.9924,-4.0106,-4.0109,0,0,0,0,0,0,-3.9778,-3.9785,-3.9871,-3.9874,-3.9806,-3.9836,-3.9841,-3.9864,-3.9884,-3.9885,-3.9858,-3.9854,-3.9899,-3.9904,-3.991,-3.9993,-3.9921,-3.9924,-3.9927,-4.0104,-4.0107,-4.011,0,0,0,0,0,0,-3.9775,-3.9786,-3.987,-3.9829,-3.9838,-3.9841,-3.9867,-3.9866,-3.9881,-3.9888,-3.9888,-3.9872,-3.9897,-3.9905,-3.9959,-3.9994,-3.9926,-3.993,-4.0101,-4.0105,-4.0108,-4.0161,0,0,0,0,0,0,-3.9772,-3.9785,-3.9814,-3.983,-3.9841,-3.9919,-3.9869,-3.9869,-3.9887,-3.9883,-3.9901,-3.9902,-3.9896,-3.9953,-3.9963,-3.9998,-3.9933,-4.0098,-4.0103,-4.0107,-4.0156,-4.0166,-4.0174,0,0,0,0,0,-3.9768,-3.9829,-3.9816,-3.9827,-3.9877,-3.9921,-3.9927,-3.9919,-3.9891,-3.9918,-3.9922,-3.9902,-3.9988,-3.9959,-3.997,-4.0007,-4.0096,-4.0101,-4.0107,-4.0152,-4.0164,-4.0174,0,0,0,0,0,0,-3.9821,-3.9831,-3.9817,-3.9885,-3.9902,-3.9914,-3.995,-3.9933,-3.9959,-3.9953,-3.9941,-3.9946,-4.0002,-4.001,-3.9977,-4.0075,-4.0037,-4.0045,-4.0068,-4.0079,-4.0088,-4.0085,-3.9936,0,0,0,0,0,-3.984,-3.9874,-3.9882,-3.9941,-3.995,-3.9948,-3.9967,-3.9958,-3.9976,-3.9983,-3.9991,-4.0008,-4.0039,-4.006,-4.0089,-4.0156,-4.0157,-4.0186,-4.0195,-4.0203,-4.021,-4.024,-4.0252,-4.0128,-4.0128,-4.0128,0,0,-3.988,-3.989,-3.9914,-3.9952,-3.9964,-3.9998,-3.9955,-3.9995,-4.002,-3.999,-4.004,-4.0045,-4.0064,-4.0123,-4.015,-4.0132,-4.0244,-4.021,-4.0216,-4.0219,-4.0247,-4.0259,-4.0269,-4.0131,-4.0131,-4.013,0,0,-3.9971,-3.9984,-4.0032,-4.0043,-4.0061,-4.0058,-4.007,-4.0083,-4.0085,-4.0135,-4.0111,-4.014,-4.0194,-4.0206,-4.022,-4.0308,-4.0288,-4.0317,-4.0365,-4.0395,-4.0405,-4.0413,-4.0441,-4.0451,-4.0324,-4.0324,-4.0324,0,-4.002,-4.0071,-4.0059,-4.0098,-4.0114,-4.0085,-4.0131,-4.0144,-4.0171,-4.0181,-4.016,-4.0223,-4.0234,-4.0293,-4.0314,-4.0327,-4.0337,-4.0316,-4.0404,-4.0413,-4.0421,-4.0447,-4.0458,-4.0328,-4.0327,-4.0327,-4.0327,0,-4.0127,-4.0163,-4.0199,-4.0223,-4.0242,-4.0286,-4.0277,-4.0298,-4.0286,-4.0285,-4.0333,-4.0344,-4.0372,-4.0385,-4.0376,-4.0442,-4.0429,-4.0406,-4.0368,-4.0436,-4.046,-4.047,-4.0332,-4.0331,-4.033,-4.0329,0,0,-4.0257,-4.0268,-4.0281,-4.0288,-4.0303,-4.033,-4.0369,-4.0395,-4.0411,-4.0429,-4.046,-4.0503,-4.048,-4.0495,-4.0486,-4.0512,-4.0575,-4.0486,-4.0486,-4.0499,-4.0644,-4.0659,-4.0671,-4.0562,-4.0564,-4.0566,-4.0641,0,-4.0345,-4.0413,-4.04,-4.0466,-4.0496,-4.0466,-4.0499,-4.0511,-4.0509,-4.0533,-4.0531,-4.0561,-4.053,-4.0538,-4.0563,-4.0563,-4.0604,-4.0557,-4.0589,-4.059,-4.0583,-4.0684,-4.0702,-4.0773,-4.0651,-4.0652,-4.0653,0,-4.0459,-4.0477,-4.0545,-4.0549,-4.0561,-4.0592,-4.061,-4.0635,-4.0645,-4.0641,-4.0655,-4.0638,-4.0675,-4.0636,-4.0683,-4.0652,-4.0663,-4.0664,-4.0666,-4.0668,-4.0625,-4.0686,-4.0796,-4.0805,-4.0669,-4.0668,-4.0667,0,-4.0541,-4.0583,-4.0628,-4.0636,-4.0642,-4.0663,-4.0667,-4.0675,-4.0689,-4.0705,-4.0713,-4.0735,-4.0746,-4.0761,-4.0749,-4.0723,-4.0797,-4.0759,-4.0793,-4.0793,-4.081,-4.0809,-4.0921,-4.0821,-4.0821,-4.0821,-4.0821,0,-4.0641,-4.0683,-4.0664,-4.0692,-4.0736,-4.0718,-4.0763,-4.0763,-4.0769,-4.0794,-4.077,-4.0794,-4.0777,-4.0799,-4.079,-4.0828,-4.0834,-4.0831,-4.0827,-4.0832,-4.0832,-4.0839,-4.0833,-4.0824,-4.0823,-4.0822,-4.0822,0,-4.0741,-4.0731,-4.0776,-4.0776,-4.0777,-4.081,-4.0809,-4.0833,-4.0827,-4.0859,-4.0865,-4.0857,-4.088,-4.087,-4.0896,-4.0889,-4.0937,-4.0929,-4.0933,-4.093,-4.0964,-4.096,-4.1083,-4.1096,-4.099,-4.0991,-4.0992,0,-4.0804,-4.0835,-4.0837,-4.0851,-4.0855,-4.0879,-4.0892,-4.0874,-4.0889,-4.0899,-4.092,-4.0941,-4.0957,-4.0996,-4.0991,-4.1009,-4.0999,-4.1041,-4.1002,-4.1004,-4.0996,-4.0994,-4.0995,-4.1049,-4.105,-4.1051,-4.1052,0,-4.0917,-4.0908,-4.0927,-4.0943,-4.0958,-4.097,-4.098,-4.0993,-4.0975,-4.0991,-4.1014,-4.1026,-4.1049,-4.1069,-4.1083,-4.1086,-4.1065,-4.1063,-4.1072,-4.1076,-4.1076,-4.1073,-4.0952,-4.1061,-4.106,-4.1059,-4.1059,-4.1059,-4.0998,-4.1022,-4.1025,-4.1045,-4.105,-4.1058,-4.1078,-4.1073,-4.1092,-4.1108,-4.1097,-4.1122,-4.1126,-4.1143,-4.1147,-4.1165,-4.1148,-4.1162,-4.1164,-4.1167,-4.117,-4.1074,-4.1168,-4.1168,-4.1167,-4.1167,-4.1167,0,-4.1106,-4.1105,-4.1124,-4.1136,-4.1151,-4.1128,-4.1136,-4.1149,-4.1172,-4.1177,-4.1191,-4.1214,-4.1232,-4.1226,-4.1241,-4.1257,-4.1247,-4.1261,-4.1259,-4.1259,-4.1186,-4.1176,-4.1268,-4.1268,-4.1268,-4.1268,-4.1268,-4.1268,-4.1164,-4.1201,-4.1192,-4.1229,-4.1228,-4.1251,-4.1257,-4.1263,-4.1266,-4.1292,-4.1306,-4.1301,-4.1301,-4.1314,-4.1328,-4.1326,-4.1331,-4.1348,-4.1342,-4.1275,-4.1265,-4.1255,-4.1245,-4.135,-4.135,-4.1413,-4.1413,-4.1414]}]]